Terminal Aerodrome Forecast
Issued by NWS

Home | Current Version | Previous Version | Text Only | Print | Product List | Glossary On
Versions: 1 2 3 4 5 6 7 8 9 10 11 12 13 14 15 16 17 18 19 20 21 22 23 24 25 26 27 28 29
591
FTUS41 KGYX 251120
TAFRKD
TAF
KRKD 251120Z 2512/2612 05006KT 3/4SM BR OVC003
      TEMPO 2512/2514 3SM BR OVC009
     FM251400 07009KT 2SM -DZ BR OVC003
     FM252000 10012KT 1SM -SHRA BR OVC006
     FM260000 09009G16KT 1/2SM -RA FG OVC003=

USA.gov is the U.S. government's official web portal to all federal, state and local government web resources and services.